Yoho Park, British Columbia

6:43 PM MDT on August 19, 2017 (GMT -0600)
Yoho Park

Weather History for CWYL - December, 2012

Change the Weather History Date:

Monday, December 31, 2012

  Actual Average Record
Temperature  
Mean Temperature 10 °F -  
Max Temperature 14 °F - - ()
Min Temperature 5 °F - - ()
Degree Days  
Heating Degree Days 56    
Moisture  
Dew Point 8 °F    
Average Humidity 89    
Maximum Humidity 91    
Minimum Humidity 83    
Precipitation  
Precipitation 0.00 in - - ()
Sea Level Pressure  
Sea Level Pressure 30.36 in    
Wind  
Wind Speed 9 mph ()    
Max Wind Speed 17 mph    
Max Gust Speed -    
T = Trace of Precipitation, MM = Missing Value Source: Averaged Metar Reports

Daily Weather History Graph

Daily Weather History Graph

Search for Another Location

Airport or City:

Trip Planner

Search our weather history database for the weather conditions in past years. The results will help you decide how hot, cold, wet, or windy it might be!

Date:

Astronomy

Dec. 31, 2012 Rise Set
Actual Time 8:50 AM MST 4:46 PM MST
Civil Twilight 8:10 AM MST 5:26 PM MST
Nautical Twilight 7:27 AM MST 6:09 PM MST
Astronomical Twilight 6:47 AM MST 6:50 PM MST
Moon 8:49 PM MST (12/31) 10:09 AM MST (12/31)
Length of Visible Light 9h 15m
Length of Day
7h 56m
Waning Gibbous, 90% of the Moon is Illuminated
Dec 31
Waning Gibbous
Jan 4
Last Quarter
Jan 11
New
Jan 18
First Quarter
Jan 26
Full

Hourly Weather History & Observations

Time (MST) Temp. Windchill Dew Point Humidity Pressure Visibility Wind Dir Wind Speed Gust Speed Precip Events Conditions
12:00 AM 5.9 °F -7.0 °F 3.0 °F 88% 30.36 in - WSW 8.1 mph - N/A   Unknown
1:00 AM 6.8 °F -4.8 °F 3.9 °F 88% 30.34 in - WSW 6.9 mph - N/A   Unknown
2:00 AM 7.7 °F -4.8 °F 5.0 °F 89% 30.34 in - SW 8.1 mph - N/A   Unknown
3:00 AM 8.1 °F -5.3 °F 5.4 °F 89% 30.35 in - WSW 9.2 mph - N/A   Unknown
4:00 AM 8.4 °F -1.6 °F 5.7 °F 89% 30.36 in - SW 5.8 mph - N/A   Unknown
5:00 AM 8 °F - 5 °F 83% 30.36 in - WSW 11.5 mph - -  
5:00 AM 8.1 °F -7.0 °F 5.4 °F 89% 30.36 in - WSW 11.5 mph - N/A   Unknown
6:00 AM 7.9 °F -5.5 °F 5.2 °F 89% 30.35 in - SW 9.2 mph - N/A   Unknown
7:00 AM 8.4 °F -4.9 °F 5.7 °F 89% 30.35 in - SW 9.2 mph - N/A   Unknown
8:00 AM 8.8 °F -3.5 °F 6.1 °F 89% 30.35 in - SW 8.1 mph - N/A   Unknown
9:00 AM 8.6 °F -2.6 °F 5.9 °F 89% 30.35 in - SW 6.9 mph - N/A   Unknown
10:00 AM 10.0 °F 3.6 °F 7.3 °F 89% 30.35 in - SW 3.5 mph - N/A   Unknown
11:00 AM 11 °F - 8 °F 84% 30.36 in - West 9.2 mph - -  
11:00 AM 11.1 °F -1.6 °F 8.4 °F 89% 30.36 in - West 9.2 mph - N/A   Unknown
12:00 PM 12.2 °F -1.8 °F 9.7 °F 90% 30.36 in - West 11.5 mph - N/A   Unknown
1:00 PM 13.1 °F -2.6 °F 10.4 °F 89% 30.35 in - West 15.0 mph - N/A   Unknown
2:00 PM 13.5 °F -1.5 °F 10.9 °F 90% 30.35 in - West 13.8 mph - N/A   Unknown
3:00 PM 14.2 °F -1.7 °F 11.7 °F 90% 30.35 in - WSW 16.1 mph - N/A   Unknown
4:00 PM 13.6 °F -2.4 °F 11.1 °F 90% 30.36 in - WSW 16.1 mph - N/A   Unknown
6:00 PM 12.9 °F -3.9 °F 10.6 °F 90% 30.39 in - West 17.3 mph - N/A   Unknown
7:00 PM 11.7 °F -3.8 °F 9.3 °F 90% 30.39 in - West 13.8 mph - N/A   Unknown
8:00 PM 12.0 °F -4.0 °F 9.9 °F 91% 30.38 in - West 15.0 mph - N/A   Unknown
9:00 PM 12.6 °F 0.2 °F 10.4 °F 91% 30.39 in - SW 9.2 mph - N/A   Unknown
10:00 PM 12.9 °F -2.8 °F 10.8 °F 91% 30.40 in - WSW 15.0 mph - N/A   Unknown
11:00 PM 13 °F - 11 °F 85% 30.39 in - WSW 15.0 mph - -  
11:00 PM 12.7 °F -3.0 °F 10.6 °F 91% 30.39 in - WSW 15.0 mph - N/A   Unknown